Weather History for KANE - December, 2012

Change the Weather History Date:

Sunday, December 2, 2012

  Actual Average Record
Temperature  
Mean Temperature 34 °F -  
Max Temperature 42 °F 33 °F 69 °F (2013)
Min Temperature 26 °F 19 °F 5 °F (1996)
Degree Days  
Heating Degree Days 31    
Moisture  
Dew Point 33 °F    
Average Humidity 97    
Maximum Humidity 100    
Minimum Humidity 87    
Precipitation  
Precipitation 0.00 in - - ()
Sea Level Pressure  
Sea Level Pressure 29.88 in    
Wind  
Wind Speed 2 mph (SE)    
Max Wind Speed 14 mph    
Max Gust Speed 18 mph    
Visibility 1 miles    
Events Fog    
Averages and records for this station are not official NWS values.
T = Trace of Precipitation, MM = Missing Value Source: NWS Daily Summary

Daily Weather History Graph

Daily Weather History Graph

Search for Another Location

Airport or City:

Trip Planner

Search our weather history database for the weather conditions in past years. The results will help you decide how hot, cold, wet, or windy it might be!

Date:

Astronomy

Dec. 02, 2012 Rise Set
Actual Time 7:33 AM CST 4:31 PM CST
Civil Twilight 6:59 AM CST 5:05 PM CST
Nautical Twilight 6:22 AM CST 5:41 PM CST
Astronomical Twilight 5:47 AM CST 6:17 PM CST
Moon 8:24 PM CST 10:19 AM CST
Length of Visible Light 10h 05m
Length of Day
8h 58m
Waning Gibbous, 85% of the Moon is Illuminated
Dec 2
Waning Gibbous
Dec 6
Last Quarter
Dec 13
New
Dec 19
First Quarter
Dec 28
Full

Hourly Weather History & Observations

Time (CST) Temp. Windchill Dew Point Humidity Pressure Visibility Wind Dir Wind Speed Gust Speed Precip Events Conditions
12:14 AM 35.6 °F - 35.6 °F 100% 29.85 in 0.2 mi Calm Calm - N/A Fog Fog
12:34 AM 33.8 °F - 33.8 °F 100% 29.86 in 0.2 mi Calm Calm - N/A Fog Fog
12:54 AM 32.0 °F - 32.0 °F 100% 29.86 in 0.2 mi Calm Calm - N/A Fog Fog
1:14 AM 32.0 °F - 32.0 °F 100% 29.87 in 0.2 mi Calm Calm - N/A Fog Fog
1:34 AM 32.0 °F - 32.0 °F 100% 29.87 in 0.2 mi Calm Calm - N/A Fog Fog
1:54 AM 30.2 °F - 30.2 °F 100% 29.88 in 0.2 mi Calm Calm - N/A Fog Light Freezing Fog
2:14 AM 30.2 °F - 30.2 °F 100% 29.88 in 0.2 mi Calm Calm - N/A Fog Light Freezing Fog
2:34 AM 28.4 °F - 28.4 °F 100% 29.88 in 0.2 mi Calm Calm - N/A Fog Light Freezing Fog
2:54 AM 28.4 °F - 28.4 °F 100% 29.88 in 0.2 mi Calm Calm - N/A Fog Light Freezing Fog
3:14 AM 28.4 °F - 28.4 °F 100% 29.89 in 0.2 mi Calm Calm - N/A Fog Light Freezing Fog
3:34 AM 28.4 °F - 28.4 °F 100% 29.90 in 0.2 mi Calm Calm - N/A Fog Light Freezing Fog
3:54 AM 28.4 °F - 28.4 °F 100% 29.89 in 0.2 mi Calm Calm - N/A Fog Light Freezing Fog
4:14 AM 26.6 °F - 26.6 °F 100% 29.90 in 0.2 mi Calm Calm - N/A Fog Light Freezing Fog
4:34 AM 28.4 °F - 26.6 °F 93% 29.91 in 0.2 mi Calm Calm - N/A Fog Light Freezing Fog
4:54 AM 28.4 °F - 26.6 °F 93% 29.91 in 0.2 mi Calm Calm - N/A Fog Light Freezing Fog
5:14 AM 26.6 °F - 26.6 °F 100% 29.92 in 0.2 mi Calm Calm - N/A Fog Light Freezing Fog
5:34 AM 28.4 °F - 26.6 °F 93% 29.93 in 0.2 mi Calm Calm - N/A Fog Light Freezing Fog
5:54 AM 28.4 °F - 26.6 °F 93% 29.93 in 0.2 mi Calm Calm - N/A Fog Light Freezing Fog
6:14 AM 28.4 °F - 26.6 °F 93% 29.94 in 0.2 mi Calm Calm - N/A Fog Light Freezing Fog
6:34 AM 28.4 °F - 28.4 °F 100% 29.95 in 0.2 mi Calm Calm - N/A Fog Light Freezing Fog
6:50 AM 28.4 °F - 28.4 °F 100% 29.95 in 0.1 mi Calm Calm - N/A Fog Light Freezing Fog
6:54 AM 28.4 °F - 28.4 °F 100% 29.96 in 0.2 mi Calm Calm - N/A Fog Light Freezing Fog
7:45 AM 28.4 °F - 28.4 °F 100% 29.97 in 0.1 mi Calm Calm - N/A Fog Light Freezing Fog
8:50 AM 30.2 °F - 30.2 °F 100% 29.98 in 1.0 mi Calm Calm - N/A   Overcast
9:50 AM 33.8 °F - 33.8 °F 100% 29.99 in 1.2 mi Calm Calm - N/A   Overcast
10:50 AM 37.4 °F 33.8 °F 37.4 °F 100% 29.97 in 1.2 mi SE 4.6 mph - N/A   Overcast
11:20 AM 37.4 °F 31.4 °F 37.4 °F 100% 29.77 in 0.8 mi SSE 8.1 mph - N/A   Overcast
11:45 AM 37.4 °F 32.8 °F 37.4 °F 100% 29.98 in 0.8 mi SSE 5.8 mph - N/A   Overcast
1:45 PM 37.4 °F 32.8 °F 37.4 °F 100% 29.92 in 1.0 mi SE 5.8 mph - N/A   Overcast
4:45 PM 37.4 °F 30.8 °F 37.4 °F 100% 29.89 in 2.0 mi ESE 9.2 mph - N/A   Overcast
5:45 PM 37.4 °F 30.8 °F 37.4 °F 100% 29.87 in 2.0 mi SE 9.2 mph - N/A   Overcast
6:45 PM 37.4 °F 30.8 °F 37.4 °F 100% 29.86 in 1.8 mi SE 9.2 mph - N/A   Overcast
7:00 PM 39.2 °F 34.2 °F 37.4 °F 93% 29.86 in 1.5 mi SE 6.9 mph - N/A   Overcast
7:45 PM 39.2 °F 32.0 °F 39.2 °F 100% 29.84 in 1.8 mi SE 11.5 mph - N/A   Overcast
8:45 PM 39.2 °F 32.0 °F 39.2 °F 100% 29.81 in 2.0 mi SE 11.5 mph - N/A   Overcast
9:14 PM 41.0 °F 35.2 °F 39.2 °F 93% 29.81 in 3.0 mi SE 9.2 mph - N/A   Mostly Cloudy
9:34 PM 41.0 °F 35.2 °F 39.2 °F 93% 29.81 in 3.0 mi SE 9.2 mph - N/A   Scattered Clouds
9:54 PM 41.0 °F 35.2 °F 39.2 °F 93% 29.81 in 3.0 mi SE 9.2 mph - N/A   Clear
10:14 PM 41.0 °F 34.7 °F 39.2 °F 93% 29.81 in 3.0 mi SE 10.4 mph 18.4 mph N/A   Clear
10:34 PM 41.0 °F 33.9 °F 39.2 °F 93% 29.81 in 4.0 mi SE 12.7 mph - N/A   Clear
10:54 PM 41.0 °F 34.3 °F 39.2 °F 93% 29.81 in 4.0 mi SE 11.5 mph - N/A   Clear
11:14 PM 42.8 °F 35.8 °F 39.2 °F 87% 29.80 in 4.0 mi SE 13.8 mph - N/A   Clear
11:34 PM 42.8 °F 36.6 °F 39.2 °F 87% 29.79 in 5.0 mi SE 11.5 mph 18.4 mph N/A   Clear
11:54 PM 42.8 °F 37.0 °F 39.2 °F 87% 29.78 in 5.0 mi SE 10.4 mph 18.4 mph N/A   Clear